Emporia, KS

6:16 AM CDT on July 23, 2017 (GMT -0500)
Emporia Municipal

Weather History for KEMP - January, 2014

Change the Weather History Date:

Sunday, January 5, 2014

  Actual Average Record
Temperature  
Mean Temperature 6 °F 31 °F  
Max Temperature 15 °F 41 °F 68 °F (2012)
Min Temperature -3 °F 21 °F -3 °F (2014)
Degree Days  
Heating Degree Days 59 34  
Month to date heating degree days 227 170  
Since 1 July heating degree days 2363 2103  
Cooling Degree Days 0 0  
Month to date cooling degree days 0 0  
Year to date cooling degree days 0 0  
Moisture  
Dew Point 4 °F    
Average Humidity 69    
Maximum Humidity 88    
Minimum Humidity 50    
Precipitation  
Precipitation 0.05 in 0.01 in 0.05 in (2014)
Month to date precipitation 0.07 0.05  
Year to date precipitation 0.07 0.05  
Sea Level Pressure  
Sea Level Pressure 30.23 in    
Wind  
Wind Speed 15 mph (North)    
Max Wind Speed 26 mph    
Max Gust Speed 37 mph    
Visibility 4 miles    
Events Snow    
T = Trace of Precipitation, MM = Missing Value Source: NWS Daily Summary

Daily Weather History Graph

Daily Weather History Graph

Search for Another Location

Airport or City:

Trip Planner

Search our weather history database for the weather conditions in past years. The results will help you decide how hot, cold, wet, or windy it might be!

Date:

Astronomy

Jan. 05, 2014 Rise Set
Actual Time 7:42 AM CST 5:18 PM CST
Civil Twilight 7:12 AM CST 5:48 PM CST
Nautical Twilight 6:39 AM CST 6:20 PM CST
Astronomical Twilight 6:07 AM CST 6:53 PM CST
Moon 10:28 AM CST (1/5) 10:42 PM CST (1/5)
Length of Visible Light 10h 35m
Length of Day
9h 36m
Waxing Crescent, 25% of the Moon is Illuminated
Jan 5
Waxing Crescent
Jan 7
First Quarter
Jan 15
Full
Jan 23
Last Quarter
Jan 30
New

Hourly Weather History & Observations

Time (CST) Temp. Windchill Dew Point Humidity Pressure Visibility Wind Dir Wind Speed Gust Speed Precip Events Conditions
12:09 AM 15.1 °F -2.5 °F 10.9 °F 84% 30.03 in 1.0 mi North 20.7 mph 31.1 mph 0.01 in Snow Light Snow
12:26 AM 15.1 °F -2.5 °F 10.9 °F 84% 30.04 in 1.2 mi North 20.7 mph 27.6 mph 0.01 in Snow Light Snow
12:37 AM 15.1 °F -1.6 °F 10.9 °F 84% 30.04 in 1.0 mi North 18.4 mph 28.8 mph 0.01 in Snow Light Snow
12:53 AM 15.1 °F -0.1 °F 10.9 °F 84% 30.10 in 1.2 mi North 15.0 mph 27.6 mph 0.01 in Snow Light Snow
1:05 AM 15.1 °F 2.5 °F 12.0 °F 88% 30.04 in 0.8 mi North 10.4 mph - 0.00 in Snow Light Snow
1:17 AM 15.1 °F -0.1 °F 10.9 °F 84% 30.05 in 0.8 mi North 15.0 mph 24.2 mph 0.01 in Snow Light Snow
1:50 AM 15.8 °F 1.4 °F 10.4 °F 79% 30.06 in 1.0 mi North 13.8 mph 23.0 mph 0.01 in Snow Light Snow
1:53 AM 15.1 °F -0.6 °F 10.9 °F 84% 30.11 in 1.0 mi North 16.1 mph - 0.01 in Snow Light Snow
2:01 AM 15.1 °F 0.5 °F 10.9 °F 84% 30.06 in 1.2 mi North 13.8 mph 23.0 mph 0.00 in Snow Light Snow
2:10 AM 15.1 °F -0.6 °F 10.9 °F 84% 30.06 in 0.8 mi North 16.1 mph 27.6 mph 0.00 in Snow Light Snow
2:26 AM 15.1 °F -0.1 °F 10.9 °F 84% 30.06 in 0.8 mi North 15.0 mph 25.3 mph 0.01 in Snow Light Snow
2:41 AM 15.1 °F -1.6 °F 12.0 °F 88% 30.05 in 1.0 mi North 18.4 mph 24.2 mph 0.01 in Snow Light Snow
2:53 AM 15.1 °F 0.5 °F 12.0 °F 88% 30.12 in 0.8 mi North 13.8 mph 24.2 mph 0.01 in Snow Light Snow
3:16 AM 15.1 °F -1.6 °F 10.9 °F 84% 30.07 in 1.0 mi North 18.4 mph 24.2 mph 0.01 in Snow Light Snow
3:50 AM 14.0 °F -2.0 °F 10.4 °F 86% 30.08 in 1.2 mi North 16.1 mph 27.6 mph 0.01 in Snow Light Snow
3:53 AM 14.0 °F -3.4 °F 10.0 °F 84% 30.14 in 1.2 mi North 19.6 mph 27.6 mph 0.01 in Snow Light Snow
4:00 AM 14.0 °F -0.2 °F 10.0 °F 84% 30.09 in 1.8 mi North 12.7 mph 24.2 mph 0.00 in Snow Light Snow
4:12 AM 14.0 °F -2.5 °F 10.0 °F 84% 30.07 in 2.0 mi North 17.3 mph 27.6 mph 0.00 in Snow Light Snow
4:23 AM 12.9 °F -4.9 °F 9.0 °F 84% 30.08 in 1.2 mi North 19.6 mph 26.5 mph 0.00 in Snow Light Snow
4:50 AM 12.2 °F -3.1 °F 8.6 °F 85% 30.09 in 1.0 mi North 13.8 mph 23.0 mph 0.00 in Snow Light Snow
4:53 AM 12.9 °F -2.8 °F 9.0 °F 84% 30.16 in 1.0 mi North 15.0 mph 23.0 mph 0.00 in Snow Light Snow
4:59 AM 12.9 °F -5.3 °F 9.0 °F 84% 30.10 in 0.8 mi North 20.7 mph 28.8 mph 0.00 in Snow Light Snow
5:09 AM 12.0 °F -7.3 °F 8.1 °F 84% 30.10 in 1.0 mi North 23.0 mph 32.2 mph 0.00 in Snow Light Snow
5:22 AM 12.0 °F -5.6 °F 7.0 °F 80% 30.10 in 1.2 mi North 18.4 mph 29.9 mph 0.00 in Snow Light Snow
5:29 AM 10.9 °F -7.9 °F 7.0 °F 84% 30.10 in 0.8 mi North 20.7 mph 29.9 mph 0.00 in Snow Light Snow
5:53 AM 10.9 °F -5.9 °F 7.0 °F 84% 30.18 in 1.0 mi North 16.1 mph 26.5 mph 0.00 in Snow Light Snow
6:53 AM 10.0 °F -8.1 °F 6.1 °F 84% 30.21 in 1.5 mi North 18.4 mph 24.2 mph 0.01 in Snow Light Snow
7:01 AM 10.0 °F -9.1 °F 5.0 °F 80% 30.14 in 2.0 mi North 20.7 mph 31.1 mph 0.00 in Snow Light Snow
7:23 AM 10.0 °F -6.5 °F 3.0 °F 73% 30.16 in 5.0 mi NNW 15.0 mph 24.2 mph 0.00 in Snow Light Snow
7:53 AM 9.0 °F -10.0 °F 3.0 °F 77% 30.25 in 2.5 mi NNW 19.6 mph 27.6 mph 0.00 in Snow Light Snow
8:11 AM 8.1 °F -12.2 °F 3.0 °F 80% 30.18 in 1.8 mi NNW 21.9 mph 31.1 mph 0.00 in Snow Light Snow
8:23 AM 8.1 °F -11.7 °F 1.9 °F 76% 30.19 in 3.0 mi NNW 20.7 mph 32.2 mph 0.00 in Snow Light Snow
8:53 AM 8.1 °F -11.7 °F -0.9 °F 67% 30.28 in 9.0 mi NNW 20.7 mph 29.9 mph 0.00 in   Overcast
9:53 AM 9.0 °F -11.0 °F -2.9 °F 59% 30.32 in 10.0 mi North 21.9 mph 31.1 mph 0.00 in   Overcast
10:53 AM 10.0 °F -8.1 °F -4.0 °F 53% 30.35 in 10.0 mi North 18.4 mph 34.5 mph N/A   Overcast
11:53 AM 10.0 °F -7.6 °F -4.0 °F 53% 30.36 in 10.0 mi NNW 17.3 mph 29.9 mph N/A   Overcast
12:53 PM 12.0 °F -6.0 °F -2.9 °F 51% 30.36 in 10.0 mi NNW 19.6 mph 28.8 mph N/A   Clear
1:53 PM 10.9 °F -6.5 °F -2.9 °F 54% 30.39 in 10.0 mi North 17.3 mph 28.8 mph N/A   Clear
2:53 PM 10.9 °F -6.5 °F -5.1 °F 49% 30.42 in 10.0 mi North 17.3 mph 31.1 mph N/A   Mostly Cloudy
3:53 PM 10.9 °F -4.7 °F -4.0 °F 51% 30.46 in 10.0 mi North 13.8 mph 29.9 mph N/A   Overcast
4:53 PM 10.0 °F -7.1 °F -4.0 °F 53% 30.50 in 10.0 mi North 16.1 mph 23.0 mph N/A   Overcast
5:53 PM 9.0 °F -7.9 °F -4.0 °F 56% 30.54 in 10.0 mi NNW 15.0 mph 20.7 mph N/A   Overcast
6:53 PM 7.0 °F -7.5 °F -5.1 °F 58% 30.56 in 10.0 mi NNW 10.4 mph - N/A   Mostly Cloudy
7:53 PM 3.0 °F -9.3 °F -6.0 °F 66% 30.58 in 10.0 mi NNW 6.9 mph - N/A   Partly Cloudy
8:53 PM 1.0 °F -12.9 °F -8.0 °F 66% 30.59 in 10.0 mi NNW 8.1 mph - N/A   Clear
9:53 PM -2.0 °F -12.2 °F -9.0 °F 72% 30.61 in 10.0 mi NW 4.6 mph - N/A   Clear
10:53 PM -0.9 °F -15.3 °F -9.9 °F 66% 30.62 in 10.0 mi NW 8.1 mph - N/A   Clear
11:53 PM -2.9 °F -18.8 °F -11.0 °F 68% 30.63 in 10.0 mi NNW 9.2 mph - N/A   Clear